Temp
-15 -15 -15 -15 -15 -15 -15 -15 -15 -16 -16 -16 -17 -17 -18 -18 -19 -18 -18 -18 -18 -18 -17 -17 -17 -16 -15 -14 -15 -13 -12 -11 -11 -10 -12 -12 -12 -12 -11 -11 -11 -11 -11 -11
-15 -15 -15 -15 -15 -15 -15 -15 -15 -16 -16 -16 -17 -17 -18 -18 -18 -18 -18 -18 -18 -18 -18 -17 -18 -16 -15 -14 -14 -13 -12 -12 -11 -11 -11 -12 -12 -12 -11 -11 -11 -11 -11 -11
-15 -15 -16 -16 -16 -15 -15 -15 -15 -15 -16 -16 -17 -17 -18 -18 -19 -18 -19 -18 -19 -19 -18 -18 -17 -16 -15 -15 -14 -14 -13 -12 -12 -12 -12 -12 -12 -12 -12 -12 -12 -11 -11 -12
-16 -16 -16 -16 -16 -16 -15 -15 -15 -15 -15 -16 -16 -17 -17 -18 -19 -19 -19 -19 -19 -19 -18 -18 -17 -17 -15 -15 -14 -14 -14 -12 -12 -12 -12 -12 -12 -13 -13 -12 -13 -12 -12 -12
-16 -16 -16 -16 -16 -16 -16 -15 -15 -16 -15 -16 -16 -16 -17 -18 -18 -19 -19 -19 -19 -19 -18 -18 -17 -17 -15 -15 -15 -14 -13 -14 -13 -13 -12 -12 -13 -12 -12 -12 -13 -13 -13 -13
-17 -17 -16 -17 -16 -16 -16 -16 -16 -16 -16 -15 -16 -16 -17 -17 -17 -18 -19 -19 -19 -18 -18 -18 -17 -17 -15 -14 -15 -15 -14 -13 -14 -14 -13 -15 -13 -13 -13 -12 -13 -13 -13 -13
-17 -17 -17 -17 -17 -17 -17 -16 -15 -15 -15 -16 -16 -16 -17 -17 -17 -18 -18 -18 -18 -18 -18 -18 -17 -16 -16 -15 -14 -14 -14 -14 -13 -14 -15 -15 -14 -14 -13 -13 -13 -13 -14 -14
-17 -17 -17 -17 -17 -17 -17 -17 -17 -17 -16 -16 -16 -16 -17 -17 -17 -17 -17 -18 -18 -18 -18 -18 -17 -17 -16 -15 -15 -14 -14 -14 -14 -14 -14 -15 -13 -13 -14 -14 -13 -14 -14 -14
-17 -18 -18 -18 -18 -17 -17 -17 -17 -17 -16 -16 -16 -17 -17 -17 -17 -17 -18 -17 -18 -18 -17 -18 -18 -17 -17 -16 -15 -15 -14 -14 -14 -14 -13 -14 -13 -14 -13 -13 -12 -13 -13 -14
-17 -17 -18 -18 -18 -18 -18 -18 -17 -17 -17 -16 -16 -17 -16 -17 -17 -17 -17 -17 -17 -18 -18 -18 -17 -17 -17 -17 -16 -15 -15 -15 -15 -14 -14 -14 -14 -14 -14 -14 -13 -13 -13 -13
-17 -17 -17 -18 -18 -18 -18 -18 -18 -17 -17 -17 -16 -17 -17 -16 -16 -16 -17 -17 -17 -17 -17 -18 -17 -17 -17 -17 -17 -17 -16 -16 -15 -15 -15 -14 -14 -14 -14 -14 -14 -14 -14 -14
-17 -17 -16 -17 -17 -18 -18 -18 -18 -18 -17 -17 -17 -16 -16 -16 -16 -16 -16 -16 -16 -16 -17 -17 -18 -17 -17 -18 -17 -17 -17 -17 -17 -16 -16 -17 -16 -15 -15 -14 -14 -14 -15 -15
-17 -17 -16 -16 -17 -17 -17 -17 -18 -18 -18 -18 -17 -16 -17 -16 -16 -16 -16 -16 -16 -16 -16 -17 -17 -17 -18 -17 -18 -18 -17 -17 -17 -17 -17 -16 -17 -15 -15 -15 -15 -15 -15 -15
-17 -17 -17 -17 -17 -17 -17 -18 -18 -17 -17 -18 -17 -16 -17 -17 -16 -16 -16 -16 -16 -16 -16 -16 -17 -17 -17 -17 -17 -18 -18 -18 -18 -18 -17 -17 -17 -17 -16 -16 -16 -16 -16 -16
-18 -17 -17 -17 -18 -18 -17 -18 -18 -17 -18 -17 -18 -17 -17 -17 -17 -17 -16 -16 -16 -16 -16 -16 -16 -17 -17 -17 -17 -17 -18 -18 -18 -18 -18 -18 -17 -17 -17 -17 -17 -17 -17 -17
-18 -18 -17 -17 -18 -18 -17 -17 -18 -18 -18 -17 -18 -17 -18 -17 -17 -16 -16 -16 -17 -17 -17 -16 -16 -16 -17 -17 -17 -17 -17 -18 -18 -18 -18 -18 -18 -18 -18 -17 -17 -17 -17 -17
-18 -18 -18 -17 -17 -17 -16 -17 -18 -18 -18 -18 -18 -18 -18 -18 -18 -17 -16 -17 -16 -17 -17 -17 -17 -16 -16 -17 -17 -17 -17 -18 -18 -18 -17 -18 -18 -18 -18 -18 -18 -18 -18 -18
-18 -18 -19 -17 -18 -16 -16 -16 -17 -17 -18 -18 -18 -18 -18 -18 -18 -18 -17 -17 -17 -17 -17 -17 -17 -17 -17 -17 -17 -17 -17 -18 -18 -18 -18 -18 -18 -18 -18 -18 -18 -18 -18 -18
-19 -19 -19 -18 -18 -16 -16 -17 -17 -17 -17 -19 -19 -18 -18 -18 -18 -18 -18 -18 -17 -17 -17 -17 -17 -17 -17 -17 -17 -17 -17 -17 -18 -18 -18 -18 -18 -18 -18 -18 -18 -18 -18 -18
-19 -20 -20 -19 -18 -17 -16 -17 -17 -18 -16 -20 -19 -19 -19 -18 -18 -18 -18 -18 -18 -18 -18 -18 -18 -18 -18 -18 -18 -18 -17 -17 -17 -17 -17 -18 -18 -18 -18 -18 -18 -18 -18 -18
-19 -19 -19 -19 -19 -17 -17 -17 -19 -18 -19 -20 -19 -19 -19 -19 -19 -19 -19 -19 -19 -19 -18 -18 -18 -18 -18 -18 -18 -18 -18 -17 -17 -18 -18 -18 -18 -18 -18 -18 -18 -18 -18 -18
-19 -19 -19 -20 -19 -17 -18 -19 -20 -19 -19 -19 -20 -20 -20 -20 -20 -20 -19 -19 -19 -20 -19 -19 -18 -19 -19 -19 -18 -18 -18 -18 -18 -19 -18 -18 -18 -18 -18 -19 -19 -19 -19 -19
-20 -20 -20 -20 -19 -19 -20 -20 -20 -21 -20 -20 -20 -20 -20 -20 -21 -20 -20 -20 -20 -20 -20 -20 -19 -19 -19 -19 -19 -19 -19 -19 -19 -19 -19 -19 -19 -19 -19 -19 -19 -19 -19 -19
-20 -21 -21 -22 -19 -20 -21 -21 -21 -21 -21 -21 -21 -21 -21 -21 -21 -21 -21 -21 -21 -21 -21 -21 -20 -20 -20 -20 -20 -20 -20 -20 -20 -20 -20 -20 -20 -20 -20 -20 -20 -20 -20 -20
-21 -21 -22 -21 -21 -21 -21 -22 -22 -22 -22 -22 -21 -21 -22 -22 -22 -22 -22 -22 -22 -22 -22 -21 -21 -21 -21 -21 -21 -21 -21 -20 -21 -20 -21 -21 -21 -21 -21 -20 -20 -20 -20 -20
-22 -23 -24 -22 -22 -23 -22 -23 -23 -22 -22 -21 -21 -21 -22 -23 -23 -22 -22 -22 -22 -22 -21 -22 -22 -21 -22 -22 -22 -21 -21 -21 -21 -21 -21 -21 -21 -21 -21 -21 -21 -21 -21 -21
Height
5744 5741 5735 5729 5724 5717 5712 5705 5697 5689 5683 5677 5669 5661 5652 5642 5635 5632 5631 5633 5634 5638 5644 5646 5651 5659 5668 5677 5684 5688 5698 5698 5702 5708 5722 5729 5738 5746 5754 5760 5767 5772 5777 5781
5744 5739 5734 5728 5722 5716 5709 5704 5698 5691 5683 5678 5670 5663 5654 5645 5638 5634 5631 5632 5631 5634 5639 5641 5646 5655 5662 5669 5678 5685 5687 5693 5698 5707 5709 5721 5733 5740 5747 5752 5760 5766 5771 5775
5740 5737 5730 5726 5721 5715 5708 5702 5696 5689 5684 5677 5672 5665 5656 5647 5640 5636 5631 5630 5631 5632 5634 5636 5643 5650 5659 5664 5673 5681 5684 5693 5695 5702 5711 5716 5724 5732 5740 5747 5753 5759 5763 5768
5738 5733 5728 5723 5718 5713 5707 5701 5695 5688 5682 5676 5670 5666 5659 5650 5643 5638 5634 5630 5629 5629 5632 5635 5641 5646 5656 5660 5672 5676 5683 5690 5693 5699 5704 5709 5718 5725 5731 5738 5744 5751 5754 5759
5735 5730 5726 5720 5715 5711 5706 5698 5693 5687 5682 5676 5671 5667 5660 5653 5647 5641 5636 5633 5631 5630 5631 5633 5637 5642 5649 5657 5665 5675 5680 5685 5688 5694 5701 5708 5712 5716 5723 5727 5733 5740 5744 5747
5730 5726 5723 5718 5712 5707 5703 5698 5692 5687 5682 5676 5670 5666 5661 5656 5649 5643 5639 5636 5633 5631 5633 5633 5636 5639 5644 5652 5660 5669 5677 5683 5686 5690 5697 5703 5706 5712 5719 5723 5728 5732 5737 5740
5728 5724 5719 5715 5711 5705 5700 5696 5690 5687 5680 5675 5669 5666 5661 5656 5651 5646 5642 5639 5636 5633 5632 5634 5634 5637 5640 5647 5654 5663 5672 5678 5684 5688 5692 5702 5701 5706 5714 5720 5722 5725 5730 5731
5721 5720 5715 5711 5706 5701 5696 5692 5687 5680 5676 5674 5670 5666 5662 5658 5653 5647 5644 5640 5638 5635 5633 5633 5633 5633 5637 5641 5648 5654 5663 5671 5678 5683 5688 5696 5704 5703 5707 5710 5714 5718 5720 5724
5713 5714 5710 5707 5702 5699 5694 5690 5687 5682 5679 5674 5671 5667 5663 5658 5655 5650 5645 5641 5638 5637 5635 5634 5633 5634 5636 5638 5643 5649 5655 5662 5670 5676 5680 5688 5696 5700 5703 5706 5708 5712 5716 5719
5708 5704 5707 5703 5699 5696 5692 5689 5684 5681 5674 5670 5671 5665 5662 5659 5656 5653 5648 5644 5641 5638 5636 5635 5635 5634 5636 5639 5640 5644 5650 5656 5663 5668 5673 5678 5686 5691 5695 5699 5702 5705 5709 5710
5700 5698 5701 5699 5695 5692 5689 5685 5682 5679 5676 5670 5666 5666 5661 5657 5655 5652 5649 5645 5642 5641 5638 5637 5637 5636 5636 5638 5640 5643 5646 5652 5657 5663 5666 5669 5675 5680 5684 5689 5693 5695 5699 5701
5693 5688 5689 5693 5691 5687 5685 5682 5678 5675 5674 5670 5666 5665 5659 5656 5653 5651 5648 5646 5642 5640 5639 5638 5636 5637 5637 5638 5640 5642 5645 5648 5652 5657 5661 5663 5665 5671 5675 5679 5682 5686 5689 5692
5684 5680 5681 5682 5686 5682 5679 5678 5674 5670 5669 5669 5663 5662 5655 5654 5652 5649 5647 5645 5643 5639 5638 5638 5637 5635 5636 5637 5638 5641 5644 5645 5647 5651 5656 5659 5659 5666 5664 5671 5674 5675 5677 5680
5674 5672 5674 5673 5674 5673 5671 5671 5668 5665 5662 5659 5661 5657 5656 5653 5650 5648 5646 5644 5641 5639 5637 5635 5636 5636 5636 5636 5638 5639 5640 5642 5644 5647 5648 5651 5653 5655 5658 5662 5663 5664 5667 5670
5663 5662 5663 5664 5665 5663 5661 5662 5663 5659 5657 5652 5655 5651 5650 5649 5647 5645 5643 5642 5639 5637 5636 5634 5632 5633 5635 5636 5637 5636 5638 5639 5640 5642 5642 5643 5645 5647 5648 5651 5653 5653 5655 5657
5653 5651 5651 5651 5655 5653 5648 5651 5657 5653 5650 5647 5646 5645 5643 5643 5642 5641 5638 5638 5637 5635 5633 5633 5632 5630 5628 5630 5631 5633 5635 5633 5633 5635 5636 5637 5637 5640 5641 5643 5645 5645 5647 5648
5642 5641 5640 5638 5640 5638 5634 5645 5645 5644 5643 5641 5640 5638 5636 5636 5636 5635 5634 5632 5631 5631 5630 5628 5628 5628 5627 5625 5624 5623 5623 5625 5627 5629 5629 5629 5630 5632 5633 5634 5633 5635 5636 5636
5631 5631 5628 5626 5627 5623 5628 5627 5632 5634 5635 5634 5632 5632 5629 5628 5627 5627 5627 5626 5625 5623 5623 5623 5622 5621 5621 5621 5620 5619 5617 5616 5616 5617 5619 5620 5622 5622 5624 5624 5625 5628 5626 5627
5618 5617 5615 5612 5613 5616 5616 5618 5616 5618 5624 5625 5624 5624 5620 5619 5619 5619 5618 5618 5617 5616 5615 5616 5615 5614 5614 5614 5613 5612 5611 5610 5610 5609 5608 5609 5609 5610 5611 5613 5615 5615 5615 5615
5606 5605 5604 5603 5602 5602 5604 5604 5604 5611 5610 5616 5614 5610 5610 5611 5611 5610 5610 5609 5608 5608 5607 5607 5607 5607 5607 5605 5604 5604 5603 5603 5604 5604 5604 5603 5603 5603 5603 5604 5603 5603 5603 5603
5587 5586 5589 5590 5588 5591 5593 5592 5595 5596 5604 5597 5601 5601 5601 5601 5601 5600 5600 5600 5599 5599 5598 5597 5597 5597 5598 5598 5596 5596 5595 5595 5596 5596 5596 5596 5596 5596 5596 5596 5595 5594 5594 5593
5571 5571 5573 5572 5575 5574 5581 5582 5580 5583 5584 5585 5587 5588 5589 5588 5588 5589 5590 5590 5589 5589 5588 5588 5587 5587 5587 5587 5588 5587 5587 5588 5588 5588 5587 5587 5586 5586 5586 5585 5584 5583 5582 5581
5554 5556 5555 5555 5559 5562 5563 5567 5568 5569 5571 5573 5574 5573 5574 5575 5575 5577 5578 5578 5579 5579 5578 5578 5577 5576 5576 5576 5576 5577 5577 5577 5577 5577 5577 5577 5576 5576 5575 5574 5573 5572 5571 5569
5535 5535 5532 5535 5545 5547 5548 5551 5553 5555 5558 5558 5559 5560 5562 5563 5564 5565 5566 5567 5567 5567 5566 5566 5565 5565 5565 5565 5565 5566 5567 5567 5567 5566 5566 5565 5565 5564 5563 5562 5561 5559 5557 5555
5520 5517 5510 5514 5519 5528 5536 5535 5536 5537 5540 5542 5545 5548 5549 5549 5552 5554 5556 5556 5556 5555 5554 5555 5554 5554 5553 5554 5554 5555 5555 5555 5555 5555 5554 5554 5553 5552 5551 5549 5548 5546 5543 5541
5504 5492 5488 5493 5505 5505 5520 5520 5521 5523 5526 5529 5531 5534 5537 5539 5542 5544 5545 5545 5544 5543 5543 5543 5543 5543 5543 5543 5544 5544 5544 5544 5544 5544 5543 5541 5540 5539 5537 5536 5534 5532 5530 5527
Wind_Speed
30 29 29 31 33 35 31 30 31 34 34 34 36 35 33 34 24 12 15 19 25 32 50 64 64 64 64 69 66 54 38 51 57 46 70 60 58 56 53 50 50 49 50 49
31 31 31 31 31 32 33 29 29 28 33 32 32 32 31 32 29 21 14 15 19 26 33 44 58 60 61 64 63 65 38 36 42 67 49 61 57 56 56 52 51 49 48 49
32 32 34 33 32 29 30 29 27 29 28 29 29 29 27 29 28 27 19 14 13 18 24 32 32 53 55 59 63 66 56 32 32 40 42 57 63 59 55 52 49 50 49 49
32 33 34 35 34 31 29 26 26 26 29 29 30 29 26 26 27 25 23 19 11 10 13 19 27 37 55 54 56 58 57 42 37 36 28 32 51 60 57 55 52 53 51 49
33 32 34 35 35 30 30 28 27 25 25 27 27 27 28 24 24 23 23 20 16 10 5 9 18 26 45 54 51 48 50 65 54 42 28 26 30 44 56 63 62 55 53 52
33 33 33 33 34 32 31 29 24 21 21 23 26 26 26 25 25 23 21 23 19 12 6 3 10 25 36 46 48 44 48 53 51 54 49 33 21 22 28 40 50 59 63 64
31 31 32 32 31 32 33 30 25 20 18 21 23 24 25 24 24 22 19 19 20 18 9 5 5 12 29 38 44 46 45 46 49 39 47 31 37 28 21 25 29 38 22 37
34 27 30 31 33 36 34 32 30 32 28 21 18 22 22 22 21 22 20 19 17 17 11 7 7 5 13 30 40 41 42 43 42 35 38 38 35 42 42 36 29 36 40 38
37 29 28 31 32 33 32 31 29 30 25 20 18 18 19 21 19 20 19 18 18 14 15 9 6 7 7 14 28 34 36 36 35 35 39 36 38 35 36 42 46 45 43 39
35 34 28 31 32 31 30 29 32 32 33 29 21 15 18 20 19 16 17 16 15 15 12 12 7 4 5 7 13 25 32 33 34 37 36 32 36 37 35 36 42 46 42 40
38 38 32 30 31 30 30 31 32 31 30 31 26 22 22 21 18 18 15 15 14 11 11 8 8 6 3 3 8 15 22 29 32 38 37 32 35 38 38 37 39 39 39 34
40 43 38 32 30 31 29 32 31 31 29 29 29 23 23 18 17 18 17 14 15 13 7 7 6 3 3 2 5 11 17 25 27 30 31 28 30 35 34 35 37 38 37 38
45 45 41 37 33 35 34 32 33 34 31 28 30 25 29 25 20 20 17 16 15 15 12 7 4 4 2 2 3 10 13 17 21 25 28 32 30 26 28 34 35 36 36 35
46 46 44 41 40 38 38 34 33 35 36 37 28 25 26 29 27 22 19 18 15 16 15 13 8 4 2 4 7 9 10 12 17 22 25 27 29 30 34 35 35 35 36 30
49 49 47 44 41 41 41 39 32 34 36 39 32 32 30 29 27 24 23 20 20 17 18 16 15 13 10 9 9 10 12 15 17 17 20 23 27 29 29 31 31 28 33 38
50 51 49 47 44 44 45 43 33 34 36 37 37 36 36 33 29 26 24 23 23 23 20 22 20 19 18 18 17 16 16 17 18 18 18 18 23 28 29 32 34 39 39 40
48 49 50 48 47 48 47 38 38 36 34 37 37 36 36 35 32 30 26 25 22 24 26 25 25 25 24 23 22 21 20 20 20 22 22 21 22 24 26 29 32 34 34 34
48 50 52 53 52 49 43 43 38 35 33 35 37 36 36 35 34 31 29 26 26 25 25 28 28 28 30 29 27 26 25 25 25 25 25 26 26 27 28 30 32 35 36 36
51 53 54 55 53 48 46 46 47 44 38 34 36 37 39 38 35 32 31 30 27 27 27 28 29 30 31 32 31 34 35 35 34 33 33 32 32 31 31 32 33 35 36 38
53 53 54 56 57 55 52 53 54 46 46 30 35 40 42 40 38 36 34 32 29 28 29 28 30 30 31 30 34 36 36 36 36 37 36 36 37 38 39 40 41 42 44 45
59 60 57 57 59 57 56 57 52 52 43 42 41 41 41 41 41 40 36 34 33 29 29 31 32 32 33 33 33 37 39 40 39 38 38 37 37 39 40 41 42 42 44 45
64 65 63 64 63 64 58 54 52 49 45 43 42 40 39 40 40 39 38 36 34 32 30 32 33 34 35 35 36 36 37 38 39 39 39 40 41 41 42 42 43 44 45 46
67 66 66 68 66 62 61 55 49 47 46 43 42 41 42 43 43 40 38 36 35 34 32 31 32 34 35 36 37 37 36 36 35 35 36 36 37 38 39 39 40 41 42 42
69 67 66 65 63 59 55 51 46 44 44 45 45 44 42 43 43 42 39 36 36 35 34 33 32 33 34 36 36 36 36 36 36 36 36 37 37 36 37 38 39 40 41 42
65 67 69 68 65 57 47 42 42 43 43 42 40 39 40 41 41 40 35 34 35 36 35 34 33 33 35 36 37 38 39 39 38 38 37 37 37 38 39 40 41 42 43 45
59 64 63 65 59 56 43 41 40 43 43 41 42 40 37 37 36 33 28 30 35 37 37 36 33 32 33 35 37 38 39 41 42 42 40 39 38 39 39 39 40 41 43 45
Wind_Direction
348 349 351 350 351 349 352 351 354 352 356 359 5 1 358 357 356 318 287 268 251 245 238 232 235 229 230 226 234 226 223 212 196 207 217 211 215 219 221 222 224 225 226 227
343 345 347 348 346 347 350 350 351 354 352 0 4 5 6 3 1 352 318 299 265 251 252 247 243 233 230 231 227 220 210 207 197 195 199 210 218 223 223 222 225 226 228 229
336 338 341 346 347 347 347 347 348 350 352 356 5 9 6 4 5 3 345 308 292 277 264 258 248 239 234 234 231 227 227 216 204 216 217 214 218 221 222 225 226 228 229 230
330 334 336 339 343 347 345 348 346 349 348 352 1 10 9 3 2 3 3 6 336 303 291 272 248 243 235 238 233 238 239 230 220 215 189 205 211 224 218 222 227 228 227 229
325 327 330 334 335 337 345 345 348 346 344 349 356 7 17 8 1 4 6 12 14 18 353 272 250 234 235 238 240 237 241 239 241 245 227 206 196 210 226 225 221 227 226 225
318 320 322 328 333 336 340 342 346 346 340 347 353 359 7 14 12 6 11 11 14 15 13 309 266 242 236 238 239 239 240 244 252 260 249 269 240 214 218 219 225 233 240 236
311 313 314 321 328 332 337 339 341 352 356 346 348 356 358 4 5 8 3 16 10 358 354 316 249 255 244 234 236 238 240 244 250 261 257 264 255 251 204 226 223 221 257 277
309 309 311 319 325 331 334 341 348 347 347 349 338 346 352 357 1 1 9 2 9 15 355 339 300 248 254 245 236 236 239 246 250 251 256 255 254 258 265 267 236 267 278 281
308 306 308 315 320 326 333 336 342 340 342 342 343 331 338 347 356 2 356 3 2 16 16 349 328 308 258 253 245 237 236 239 240 241 250 251 256 255 249 251 259 264 268 270
298 304 308 311 313 319 323 331 334 340 339 340 358 331 334 334 340 349 353 354 357 9 19 20 360 331 318 266 246 243 237 236 234 235 238 241 252 256 255 252 255 261 264 269
291 295 301 306 311 314 315 319 324 329 335 334 340 341 330 325 322 331 336 341 347 358 9 21 25 4 319 293 242 234 235 235 236 236 235 234 244 253 255 254 256 260 262 264
288 292 297 299 301 303 308 312 316 319 327 328 329 343 328 327 314 312 319 327 329 339 348 356 356 359 359 272 224 223 230 230 225 228 231 226 229 243 247 253 255 256 259 259
286 288 291 295 297 297 299 302 306 309 315 321 323 332 326 331 319 308 305 314 317 318 330 318 341 336 284 228 232 225 232 233 232 234 234 235 234 229 239 255 252 252 256 257
283 284 288 290 294 294 295 297 300 304 310 308 324 321 322 323 324 311 305 292 298 306 306 311 294 266 237 242 230 227 232 235 239 238 239 240 241 238 242 234 252 254 251 244
279 280 282 283 287 289 290 291 295 300 300 302 313 311 315 318 317 316 306 297 283 283 291 291 289 278 254 241 244 244 235 233 239 243 247 246 246 244 241 242 243 244 247 245
280 281 282 282 286 286 283 282 291 290 292 297 300 305 305 310 311 312 312 303 291 278 271 279 280 275 276 269 256 245 244 249 251 253 249 241 237 240 247 249 249 253 257 260
275 279 281 281 284 282 277 291 286 285 287 288 292 295 301 303 304 307 307 305 298 289 277 271 270 273 273 272 272 270 266 258 249 252 256 257 255 252 252 253 256 258 258 260
276 277 279 279 279 278 287 284 287 284 283 285 285 291 293 293 297 301 301 301 298 292 281 275 270 268 268 268 270 272 274 275 275 271 266 261 257 256 254 255 256 258 261 262
276 278 279 278 278 278 278 288 289 289 288 290 292 289 285 285 287 292 293 294 294 293 286 276 270 268 265 267 270 266 265 265 266 270 270 270 272 272 271 271 270 271 273 273
273 275 277 278 279 278 280 283 283 287 284 297 283 274 278 282 285 287 289 291 290 290 288 282 273 268 262 258 257 257 259 261 263 266 264 263 266 269 271 272 273 275 276 277
274 276 275 272 272 277 277 278 285 283 291 284 281 281 282 281 280 280 283 286 288 286 281 277 274 269 266 262 260 258 259 261 263 264 265 265 267 268 269 271 273 275 277 278
269 270 270 270 272 275 281 280 279 282 284 283 283 282 279 276 273 273 276 277 281 283 280 275 272 267 266 266 264 263 263 262 262 261 262 264 266 268 270 272 275 277 278 279
269 270 270 269 271 271 275 278 280 280 278 276 275 270 268 269 269 271 273 277 281 282 280 277 272 268 265 265 264 264 264 266 268 269 269 270 271 273 274 276 278 279 280 281
271 271 270 269 271 272 272 273 273 272 270 269 267 266 266 267 269 270 272 274 279 281 279 276 272 268 264 264 265 266 266 267 270 272 274 275 277 280 283 285 286 287 287 287
269 268 269 268 268 267 268 268 266 263 260 257 259 261 261 263 265 268 272 275 278 279 278 276 271 264 261 264 266 267 270 273 276 279 281 283 285 286 287 288 288 288 289 290
273 271 265 266 264 263 258 257 260 261 262 261 258 254 254 259 268 270 275 287 285 281 279 275 271 268 264 265 268 271 275 278 280 282 283 285 285 285 287 289 289 290 291 291